Terminal Aerodrome Forecast
Issued by NWS Green Bay, WI

Home | Current Version | Previous Version | Graphics & Text | Print | Product List | Glossary On
Versions: 1 2 3 4 5 6 7 8 9 10 11 12 13 14 15 16 17 18 19 20 21 22 23 24 25 26 27 28 29 30 31 32 33 34 35 36 37 38 39 40 41 42 43 44 45 46 47 48 49 50
000
FTUS43 KGRB 251700
TAFGRB
TAF
KGRB 251725Z 2518/2618 24015G23KT P6SM BKN016 OVC025
     FM252000 25017G25KT P6SM BKN020 OVC050
     FM260100 26013G20KT P6SM BKN030
     FM260400 26010KT P6SM SCT030 SCT200
     FM261100 29009KT P6SM BKN025
     FM261500 32013G18KT P6SM BKN035=

USA.gov is the U.S. government's official web portal to all federal, state and local government web resources and services.